STARLINK-11281 [DTC]

Last updated on Fri Oct 04 2024 00:02:04 GMT+0000 (Coordinated Universal Time)

1 60996U 24158G 24277.44971838 .00006643 00000+0 44563-4 0 9990 2 60996 53.1575 336.2484 0001299 60.7454 299.3696 15.76724175 5559
UTC large
Height (km)
Speed (km/s)
/
Latitude / Longitude
Inclination (degrees)
Orbital Period (minutes)
Azimuth
Elevation
Range (km)
Doppler Factor

Next 0 passes for location: London (51.5072 / 0.1276)

Sorry there are no passes over London.